Regional Weather Roundup
Issued by NWS

Home | Current Version | Previous Version | Graphics & Text | Print | Product List | Glossary On
Versions: 1 2 3 4 5 6 7 8 9 10 11 12 13 14 15 16 17 18 19 20 21 22 23 24 25 26 27 28 29 30 31 32 33 34 35 36 37 38 39 40 41 42 43 44 45 46 47 48 49 50
000
ASUS43 KTOP 281159
RWRKS

WEATHER ROUNDUP FOR KANSAS
NATIONAL WEATHER SERVICE GOODLAND KS
700 AM CDT TUE JUL 28 2015

NOTE:  "FAIR" INDICATES FEW OR NO CLOUDS BELOW 12,000 FEET WITH NO
SIGNIFICANT WEATHER AND/OR OBSTRUCTIONS TO VISIBILITY.

KSZ001>006-013>018-027>032-041>047-281300-
NORTHWEST KANSAS

CITY           SKY/WX    TMP DP  RH WIND       PRES   REMARKS
GOODLAND       CLEAR     68  46  45 N21G28    29.94R
6HR MIN TEMP:  68; 6HR MAX TEMP:  79;

HAYS           CLEAR     77  61  57 S15       29.80S
HILL CITY      PTCLDY    79  67  66 SW13      29.80R
6HR MIN TEMP:  78; 6HR MAX TEMP:  82;

RUSSELL        CLEAR     77  65  66 S17G24    29.80R
6HR MIN TEMP:  77; 6HR MAX TEMP:  82;

$$

KSZ061>065-074>080-084>089-281300-
SOUTHWEST KANSAS

CITY           SKY/WX    TMP DP  RH WIND       PRES   REMARKS
DODGE CITY     CLEAR     74  62  66 S10       29.87R
6HR MIN TEMP:  74; 6HR MAX TEMP:  79;

ELKHART          N/A     73  60  63 SW7         N/A
GARDEN CITY    PTCLDY    75  64  68 S12       29.86R
6HR MIN TEMP:  75; 6HR MAX TEMP:  80;

GREAT BEND     CLEAR     75  63  64 S16       29.83R
LIBERAL        PTCLDY    75  63  64 S13       29.90R
$$

KSZ066>073-081>083-090>101-281300-
SOUTHEAST KANSAS

CITY           SKY/WX    TMP DP  RH WIND       PRES   REMARKS
CHANUTE        CLEAR     78  75  90 S7        29.91R
6HR MIN TEMP:  78; 6HR MAX TEMP:  80;

COFFEYVILLE    CLEAR     77  74  90 SE5       29.91R
6HR MIN TEMP:  77; 6HR MAX TEMP:  81;

HUTCHINSON     CLEAR     78  67  68 S10       29.86S
6HR MIN TEMP:  78; 6HR MAX TEMP:  84;

NEWTON         CLEAR     79  64  61 S18G24    29.90R
PARSONS        CLEAR     78  75  90 S5        29.92R
6HR MIN TEMP:  78; 6HR MAX TEMP:  81;

WICHITA INTL   PTCLDY    77  69  76 S13       29.88R
6HR MIN TEMP:  77; 6HR MAX TEMP:  83;

WICHITA JABRA  CLEAR     79  69  71 S13       29.89R
6HR MIN TEMP:  78; 6HR MAX TEMP:  81;

WINFIELD         N/A     78  69  73 S10       29.91R
6HR MIN TEMP:  77; 6HR MAX TEMP:  82;

$$

KSZ007>012-019>026-033>040-048>060-102>105-281300-
NORTHEAST KANSAS

CITY           SKY/WX    TMP DP  RH WIND       PRES   REMARKS
CONCORDIA      CLEAR     78  66  66 S21       29.78S
6HR MIN TEMP:  78; 6HR MAX TEMP:  81;

EMPORIA        CLEAR     76  72  87 S13       29.87S
6HR MIN TEMP:  75; 6HR MAX TEMP:  79;

LAWRENCE       CLEAR     77  74  90 SE6       29.87S FOG
6HR MIN TEMP:  76; 6HR MAX TEMP:  80;

MANHATTAN      CLEAR     80  71  74 SW13      29.81S
6HR MIN TEMP:  78; 6HR MAX TEMP:  82;

OLATHE IND     CLEAR     78  75  90 S10       29.90S
6HR MIN TEMP:  77; 6HR MAX TEMP:  80;

OLATHE EXE     CLEAR     77  74  90 S7        29.90R
6HR MIN TEMP:  76; 6HR MAX TEMP:  79;

SALINA         CLEAR     79  68  69 S13       29.81S
6HR MIN TEMP:  79; 6HR MAX TEMP:  85;

TOPEKA BILLARD CLEAR     79  74  84 S6        29.85S
6HR MIN TEMP:  78; 6HR MAX TEMP:  83;

TOPEKA FORBES  CLEAR     79  73  82 S12       29.86S
6HR MIN TEMP:  77; 6HR MAX TEMP:  83;

$$



USA.gov is the U.S. government's official web portal to all federal, state and local government web resources and services.